Location: Ozark
(37.5425°N, 88.7628°W)
Time: 01:32:32
(UTC+00:00)

Envisat - Pass Details

Date: 26 January 2020
Orbit: 764 x 766 km, 98.1° (Epoch: 25 February)

Event Time Altitude Azimuth Distance (km) Brightness Sun altitude
Rises 12:16:42 0° 17° (NNE) 3,238 6.3 -9.6°
Reaches altitude 10° 12:19:04 10° 21° (NNE) 2,308 5.5 -9.1°
Maximum altitude 12:24:04 58° 100° (E) 889 3.8 -8.2°
Drops below altitude 10° 12:29:03 10° 180° (S) 2,291 5.7 -7.2°
Sets 12:31:22 0° 184° (S) 3,213 6.4 -6.8°
